Regional Weather Roundup
Issued by NWS Wakefield, VA

Home | Current Version | Previous Version | Text Only | Print | Product List | Glossary Off
Versions: 1 2 3 4 5 6 7 8 9 10 11 12 13 14 15 16 17 18 19 20 21 22 23 24 25 26 27 28 29 30 31 32 33 34 35 36 37 38 39 40 41 42 43 44 45 46 47 48 49 50

099
ASUS41 KAKQ 251515
RWRAKQ

REGIONAL WEATHER ROUNDUP
NATIONAL WEATHER SERVICE WAKEFIELD VA
1100 AM EDT SUN SEP 25 2016

Note: "fair" indicates few or no clouds below 12,000 feet with no
significant weather and/or obstructions to visibility. * = Denotes
station may not report precipitation (e.g., rain,snow,etc.),
thunder or fog.

VAZ042-051-052>054-056-251600-
NORTHERN VIRGINIA

CITY           SKY/WX    TMP DP  RH WIND       PRES   REMARKS
WASH NATIONAL  MOSUNNY   68  45  43 NE7       30.23S
DULLES         PTSUNNY   65  42  43 VRB3      30.23R
FORT BELVOIR   SUNNY     67  45  45 VRB5      30.22S
QUANTICO         N/A     66  52  60 NE7       30.23S
FREDERICKSBRG* PTSUNNY   66  56  70 NE5       30.21S
STAFFORD*      CLOUDY    64  51  63 NE6       30.26S
WARRENTON      CLOUDY    62  45  53 NE5       30.23S
CULPEPER*      CLOUDY    61  49  64 N5        30.24S
MANASSAS*      CLOUDY    63  46  55 CALM      30.23S
LEESBURG*      CLOUDY    64  46  52 CALM      30.25S
WINCHESTER     CLOUDY    63  45  51 CALM      30.24R
FRONT ROYAL*   CLOUDY    61  46  59 NE5       30.23R
LURAY*         CLOUDY    59  50  72 NE5       30.22S
$$

VAZ048-049-060>072-079>083-251600-
CENTRAL AND SOUTH CENTRAL VIRGINIA

CITY           SKY/WX    TMP DP  RH WIND       PRES   REMARKS
RICHMOND       CLOUDY    70  58  65 NE7       30.19S
CHESTERFIELD*  CLOUDY    70  48  46 NE3       30.21S
PETERSBURG*    CLOUDY    71  60  67 NE8       30.19F
HANOVER        CLOUDY    67  58  72 CALM      30.21F
TAPPAHANNOCK*  CLOUDY    68  54  60 N5        30.21S
QUINTON*       CLOUDY    68  59  74 E5        30.19S
CHARLOTTSVILLE CLOUDY    59  54  83 NE12      30.22S
GORDONSVILLE*  CLOUDY    57  55  94 N3        30.22R FOG
ORANGE*          N/A     59  55  88 CALM      30.24S
LOUISA*        CLOUDY    66  63  88 NE6       30.20S
BUMPASS*       CLOUDY    64  60  85 NE3       30.21S
FARMVILLE*     CLOUDY    71  61  71 NE7       30.19S
CREWE*         CLOUDY    68  63  83 E3        30.20S
FORT PICKETT*  CLOUDY    68  64  87 E6        30.19S
CHASE CITY*    CLOUDY    71  61  72 NE5       30.18S
CLARKSVILLE*   CLOUDY    70  63  78 E3        30.18S
SOUTH HILL*    CLOUDY    69  64  84 CALM      30.24S
LAWRENCEVILLE* CLOUDY    69  64  83 NE5       30.19R
EMPORIA*       CLOUDY    70  63  78 NE7       30.20R
$$

VAZ088>098-251600-
SOUTHEAST VIRGINIA

CITY           SKY/WX    TMP DP  RH WIND       PRES   REMARKS
NORFOLK        CLOUDY    71  60  68 NE9       30.18R
VIRGINIA BEACH PTSUNNY   70  55  59 NE7       30.17R
NORFOLK NAVAL  NOT AVBL
WEST POINT*    CLOUDY    69  58  66 E3        30.21S
SALUDA*        PTSUNNY   69  60  72 CALM      30.19S
NEWPORT NEWS   CLOUDY    71  57  61 E10       30.18F
LANGLEY AFB    CLOUDY    72  55  54 NE10      30.18S
FORT EUSTIS    CLOUDY    73  57  55 E7        30.16S
WILLIAMSBURG*  SUNNY     73  61  64 E3        30.20S
HR EXEC AP*    CLOUDY    72  57  60 NE7       30.20S
FRANKLIN*      PTSUNNY   72  57  58 NE9       30.19S
US460-WAKEFLD  PTSUNNY   70  60  70 NE3       30.19S
$$

VAZ020-022-025-037-045-251600-
WEST CENTRAL AND SOUTHWEST VIRGINIA

CITY           SKY/WX    TMP DP  RH WIND       PRES   REMARKS
STAUNTON*      DRZL/FOG  58  57  98 NW6       30.24R VSB 1
WAYNESBORO*    CLOUDY    62  58  87 E7        30.22S
HOT SPRINGS VA RAIN      60  60 100 S5        30.26R VSB<1/4
LYNCHBURG      CLOUDY    67  59  75 E6        30.21S
DANVILLE       CLOUDY    70  65  84 VRB3      30.18S
SOUTH BOSTON*  CLOUDY    72  60  65 E7        30.18S
MARTINSVILLE   CLOUDY    68  64  86 CALM      30.22S
ROANOKE        CLOUDY    69  64  84 SE7       30.21S
BLACKSBURG     CLOUDY    68  64  89 E3        30.24F FOG
DUBLIN*        CLOUDY    71  65  83 SE3       30.23S
MARION*        CLOUDY    67  64  90 NE6       30.25S
HILLSVILLE*    CLOUDY    65  65  99 CALM      30.23S FOG
RICHLANDS*     FAIR      73  67  79 CALM      30.21S
WISE*          SUNNY     79  54  41 N3        30.22S
ABINGDON*      SUNNY     78  65  62 E6        30.18S
$$

MDZ021>025-VAZ099-100-251600-
SOUTHERN MARYLAND AND THE DELMARVA PENINSULA

CITY           SKY/WX    TMP DP  RH WIND       PRES   REMARKS
PATUXENT RIVER MOSUNNY   67  48  50 NE6       30.21S
BAY BRIDGE APT SUNNY     66  46  48 MISG      30.22S
LEONARDTOWN    SUNNY     64  50  59 N3        30.22S
DOVER          SUNNY     65  59  80 NE8       30.21R
GEORGETOWN     SUNNY     67  50  54 N8        30.21S
EASTON         NOT AVBL
CAMBRIDGE      SUNNY     63  50  63 N5        30.20S
SALISBURY      SUNNY     68  51  54 N7        30.19S
OCEAN CITY     MOSUNNY   71  56  58 N8        30.19R
WALLOPS ISLAND SUNNY     70  54  56 N9        30.19S
ACCOMACK*      SUNNY     72  55  55 N6        30.19R
$$

NCZ012>017-030>032-251600-
NORTH CENTRAL AND EASTERN NORTH CAROLINA

CITY           SKY/WX    TMP DP  RH WIND       PRES   REMARKS
ROANOKE RAPIDS CLOUDY    70  64  83 E3        30.18R
RALEIGH        CLOUDY    72  66  81 E8        30.17R
ELIZABETH CITY PTSUNNY   72  57  59 NE12      30.17S
AHOSKIE*       MOSUNNY   70  63  80 E3        30.18R
EDENTON*       CLOUDY    72  63  73 NE7       30.18R
CURRITUCK*     PTSUNNY   73  56  55 NE9G16    30.18S
KILL DEVIL HLS NOT AVBL
MANTEO         SUNNY     73  58  58 NE12      30.16R
CAPE HATTERAS  CLOUDY    74  62  66 VRB7G21   30.14R
TARBORO*       CLOUDY    73  67  83 E6        30.17S
GOLDSBORO      PTSUNNY   73  72  94 NE12      30.14S
WASHINGTON     PTSUNNY   71  67  87 E8        30.16S
GREENVILLE     CLOUDY    72  68  88 E7        30.18R
NEW BERN       CLOUDY    73  67  81 NE12      30.16R
WILMINGTON     SUNNY     81  71  71 NE9       30.12S
$$

VAZ048-251600-
ELSEWHERE

CITY           SKY/WX    TMP DP  RH WIND       PRES   REMARKS
HARRISBURG PA  MOSUNNY   65  45  48 CALM      30.23F
BALTIMORE      MOSUNNY   66  40  38 E6        30.22S
ANNAPOLIS      SUNNY     66  47  50 NE8       30.22R
ANDREWS AFB    SUNNY     65  49  54 NE7       30.21S
PHILADELPHIA   SUNNY     66  40  38 N9G18     30.23S
HENDERSON NC   PTSUNNY   67  62  85 NE5       30.18S
GREENSBORO     CLOUDY    70  69  97 NE8       30.17S FOG
ROCKY MOUNT    CLOUDY    71  68  90 NE5       30.17S
$$

VAZ100-251600-
MARINE

STATION/POSITION TIME  TEMP    WIND        PRES    WAVE   SWELL
                       AIR SEA DIR/SP/G            HT/PER HT/PER
                 (UTC) (F)     (DEG/KT/KT) (MB)    (FT/S) (FT/S)
BRANDYWINE LGT   1400   61      40/ 17/ 19   N/A
CAPE MAY NJ      1400   63 72   40/  9/ 12 1021.9R
LEWES DE         1400   63 71   40/ 10/ 13 1022.3R
OCEAN-CITY-INLET 1400   65 72   20/  8/ 10 1022.5R
WACHAPREAGUE VA  1400   68 74  360/  4/  9 1022.0S
THOMAS POINT MD  1500   62 75   20/  9/ 10 1024.7R
GOOSES REEF MD   1400   63 75   70/ 10/ 14 1023.5R   2/ 3
COVE POINT MD    1400   63      70/  7/ 11 1023.6R
SOLOMONS ISLAND  1400   64 76   30/  9/ 11   N/A
BISHOPS HEAD MD  1400   64 71   40/  8/ 10 1022.9R
PINEY POINT MD   1400           70/  7/  8   N/A
POTOMAC MD       1400   65 76   50/ 10/ 14 1021.8R   1/ 3
CAMBRIDGE MD     1400   62 74   50/  8/ 11 1022.2R
LEWISETTA VA     1400   66 74   80/  6/  9 1022.3R
RAPPAHANNOCK LGT 1400           20/  9/ 12 1022.7R
STINGRAY PT      1400   69 76  320/ 12/ 16 1022.5R   1/ 3
YORK RVR RNG VA  1400   69      80/ 10/ 12 1021.6R
YORKTOWN VA      1400   69 77   70/  8/ 10 1021.7R
JAMESTOWN VA     1400   69 78   50/  6/ 10   N/A     0
DOMINION TERM VA 1400   71      40/  3/  5 1022.0R
KIPTOPEKE VA     1400      77   30/  7/ 11   N/A
CHES BAY BRIDGE  1400   69 76   20/ 10/ 12 1021.7R
CAPE HENRY VA    1400   69      50/ 11/ 15   N/A
WILLOUBY STN VA  1400   70      50/ 11/ 13   N/A
CAPE HENRY BUOY  1412      76                N/A     4/11   2/11
1ST LANDING BUOY 1400   69 76   50/ 12/ 16 1021.6R   2/ 4
OFFSHORE WE BUOY 1451      75                N/A     5/11   2/11
64NM E OF VA BCH 1450   70 74   30/ 16/ 17 1020.8R   5/10   3/10
DUCK PIER NC     1400   71 77   30/ 14/ 17 1020.8R
44056 DUCK FRF   1411      77                N/A     5/10   2/12
OREGON INLET NC  1400   72 78   30/ 11/ 16 1020.7R
HATTERAS NC      1400   71 81   40/ 12/ 16 1020.1R
DIAMOND SHLS NC  1450   73 85   30/ 19/ 21 1019.6R   6/11   3/11
CAPE LOOKOUT NC  1500   76      40/ 16/ 18 1019.8R
$$




USA.gov is the U.S. government's official web portal to all federal, state and local government web resources and services.